Location: *
(33.6842°N, 117.7925°W)
Time: 08:21:08
(UTC+00:00)

IDEFIX/ARIANE 42P - Pass Details

Date: 21 October 2019
Orbit: 785 x 803 km, 98.3° (Epoch: 14 November)

Event Time Altitude Azimuth Distance (km) Brightness Sun altitude
Rises 12:00:02 0° 5° (N) 3,302 5.9 -25.8°
Reaches altitude 10° 12:02:27 10° 359° (N) 2,366 5.1 -25.3°
Enters shadow 12:05:19 30° 340° (NNW) 1,386 3.6 -24.7°
